This demonstration page uses our WeatherBlox Daily Observations layout. Learn more.

Left ArrowRight Arrow

Hourly Observations for August 29, 2022

Temp ( °F °C ) Dew Point ( °F °C ) Humidity (%) Winds ( mph kmh ) Pressure ( in mb ) Visibility ( mi km ) Precip ( " mm )
12:52 am 00:52 Clear 76 24.4 72 22.2 88 88 SSE 12 19 29.84 1011 10 16 0.00 0.00
1:52 am 01:52 Clear 76 24.4 72 22.2 88 88 SSE 10 17 29.83 1010 10 16 0.00 0.00
2:52 am 02:52 Clear 76 24.4 72 22.2 88 88 SSE 10 17 29.83 1010 10 16 0.00 0.00
3:52 am 03:52 Partly Cloudy 76 24.4 72 22.2 88 88 S 10 17 29.84 1010 10 16 0.00 0.00
4:52 am 04:52 Clear 76 24.4 72 22.2 88 88 SSE 9 15 29.85 1011 10 16 0.00 0.00
5:52 am 05:52 Mostly Cloudy 75 23.9 72 22.2 90 90 SSE 10 17 29.87 1012 10 16 0.00 0.00
6:52 am 06:52 Cloudy 76 24.4 72 22.2 88 88 SSE 10 17 29.89 1012 10 16 0.00 0.00
7:52 am 07:52 Partly Cloudy 76 24.4 72 22.2 88 88 S 9 15 29.91 1013 10 16 0.00 0.00
8:52 am 08:52 Mostly Cloudy 78 25.6 73 22.8 85 85 S 10 17 29.92 1013 10 16 0.00 0.00
9:52 am 09:52 Mostly Cloudy 79 26.1 73 22.8 82 82 S 10 17 29.94 1014 10 16 0.00 0.00
10:52 am 10:52 Partly Cloudy 82 27.8 74 23.3 77 77 SSW 12 19 29.95 1014 10 16 0.00 0.00
11:52 am 11:52 Mostly Sunny 84 28.9 75 23.9 74 74 SSW 9 15 29.93 1014 10 16 0.00 0.00
12:52 pm 12:52 Mostly Sunny 86 30 74 23.3 67 67 SW 9 15 29.93 1014 10 16 0.00 0.00
1:52 pm 13:52 Mostly Cloudy with Light Rain 84 28.9 74 23.3 72 72 W 9 15 29.91 1013 9 14 0.01 0.13
1:59 pm 13:59 Cloudy with Thunderstorms 84 28.9 74 23.3 72 72 W 10 17 29.88 1012 10 16 0.01 0.13
2:52 pm 14:52 Mostly Cloudy with Thunderstorms 80 26.7 70 21.1 71 71 N 8 13 29.91 1013 10 16 0.01 0.13
3:13 pm 15:13 Mostly Cloudy with Thunderstorms 77 25 70 21.1 79 79 SE 10 17 29.94 1014 10 16 0.01 0.13
3:33 pm 15:33 Cloudy with Strong Thunderstorms 71 21.7 68 20 90 90 S 25 41 29.99 1015 2 2 0.01 0.13
3:42 pm 15:42 Cloudy with Strong Thunderstorms 70 21.1 69 20.6 97 97 S 22 35 29.99 1016 1 1 0.27 6.86
3:52 pm 15:52 Cloudy with Strong Thunderstorms 69 20.6 69 20.6 100 100 SSE 18 30 29.99 1016 1 2 0.73 18.54
3:56 pm 15:56 Cloudy with Strong Thunderstorms 69 20.6 69 20.6 100 100 S 20 31 29.98 1015 1 1 0.09 2.29
4:07 pm 16:07 Cloudy with Thunderstorms 69 20.6 68 20 96 96 SSE 15 24 29.96 1015 2 3 0.29 7.37
4:10 pm 16:10 Mostly Cloudy with Nearby Thunderstorms 69 20.6 68 20 96 96 SSE 12 19 29.96 1015 4 6 0.30 7.62
4:18 pm 16:18 Mostly Cloudy with Nearby Thunderstorms 69 20.6 67 19.4 93 93 SE 10 17 29.95 1014 9 14 0.30 7.62
4:49 pm 16:49 Partly Cloudy with Light Rain 70 21 68 20 94 94 ESE 12 19 29.93 1014 9 14 0.32 8.13
4:52 pm 16:52 Partly Cloudy with Thunderstorms 70 21.1 67 19.4 90 90 E 9 15 29.93 1014 9 14 0.32 8.13
5:20 pm 17:20 Mostly Cloudy with Nearby Thunderstorms 69 20.6 68 20 96 96 Calm 29.94 1014 10 16 0.02 0.51
5:41 pm 17:41 Partly Cloudy 70 21.1 68 20 93 93 Calm 29.96 1015 10 16 0.02 0.51
5:52 pm 17:52 Mostly Sunny 70 21.1 68 20 93 93 E 5 7 29.96 1015 10 16 0.02 0.51
6:07 pm 18:07 Partly Cloudy with Nearby Thunderstorms 70 21.1 69 20.6 97 97 NNE 5 7 29.97 1015 10 16 0.01 0.25
6:36 pm 18:36 Mostly Cloudy with Light Rain 70 21.1 69 20.6 97 97 NE 6 9 29.97 1015 9 14 0.01 0.25
6:52 pm 18:52 Cloudy with Light Rain 69 20.6 69 20.6 100 100 SSW 7 11 29.98 1015 10 16 0.04 1.02
7:52 pm 19:52 Clear 70 21.1 68 20 93 93 VRB 5 7 29.92 1013 10 16 0.01 0.13
8:52 pm 20:52 Clear 70 21.1 68 20 93 93 S 9 15 29.89 1012 10 16 0.00 0.00
9:52 pm 21:52 Clear 69 20.6 68 20 96 96 SSE 9 15 29.96 1015 10 16 0.00 0.00
10:40 pm 22:40 Partly Cloudy 69 20.6 68 20 96 96 S 10 17 29.97 1015 10 16 0.00 0.00
10:49 pm 22:49 Mostly Cloudy 70 21 68 20 94 94 S 12 19 29.97 1015 10 16 0.00 0.00
10:52 pm 22:52 Partly Cloudy 69 20.6 68 20 96 96 S 10 17 29.97 1015 10 16 0.00 0.00
11:52 pm 23:52 Partly Cloudy 68 20 67 19.4 96 96 ESE 3 6 29.99 1016 10 16 0.00 0.00

Powered by AerisWeather